EW8775 Weather Reports


Display with metric or nautical units.
time (UTC)temp
F
wind
direction
speed
MPH
gust
MPH
rain 1hr
in
rain 24hr
in
rain mn
in
humidity
%
barometer
mb
20260904203016 83 180 6.0 17.0 0.00 0.00 0.00 23 1013.7
20260904200016 82 180 6.0 19.0 0.00 0.00 0.00 23 1013.8
20260904193016 81 180 6.0 19.0 0.00 0.00 0.00 27 1014.2
20260904190016 80 180 6.0 14.0 0.00 0.00 0.00 28 1014.7
20260904183016 79 180 5.0 19.0 0.00 0.00 0.00 29 1015.2
20260904180017 78 180 5.0 16.0 0.00 0.00 0.00 31 1015.4
20260904173016 78 180 5.0 14.0 0.00 0.00 0.00 27 1015.1
20260904170015 76 180 5.0 20.0 0.00 0.00 0.00 30 1015.1
20260904163016 74 158 2.0 15.0 0.00 0.00 0.00 31 1014.8
20260904160115 69 203 1.0 8.0 0.00 0.00 0.00 43 1014.0
20260904153016 67 0.0 5.0 0.00 0.00 0.00 47 1014.1
20260904150057 66 0.0 0.0 0.00 0.00 0.00 38 1013.3
20260904143057 65 0.0 3.0 0.00 0.00 0.00 30 1012.9
20260904140017 66 113 1.0 6.0 0.00 0.00 0.00 33 1013.6
20260904133017 69 113 2.0 14.0 0.00 0.00 0.00 26 1013.7
20260904130017 70 113 3.0 12.0 0.00 0.00 0.00 24 1013.8
20260904123017 69 90 2.0 13.0 0.00 0.00 0.00 23 1013.4
20260904120017 69 90 1.0 8.0 0.00 0.00 0.00 21 1013.2
20260904113017 70 113 2.0 8.0 0.00 0.00 0.00 20 1013.6
20260904110017 69 113 2.0 12.0 0.00 0.00 0.00 19 1013.3
20260904103017 68 0.0 6.0 0.00 0.00 0.00 19 1012.7
20260904100017 69 113 2.0 10.0 0.00 0.00 0.00 17 1012.4
20260904093017 70 113 2.0 10.0 0.00 0.00 0.00 16 1012.6
20260904090017 72 113 4.0 13.0 0.00 0.00 0.00 17 1012.5
20260904083017 73 135 3.0 15.0 0.00 0.00 0.00 16 1012.3
20260904080016 74 135 4.0 12.0 0.00 0.00 0.00 15 1012.3
20260904073016 74 135 3.0 15.0 0.00 0.00 0.00 16 1012.1
20260904070016 74 135 4.0 13.0 0.00 0.00 0.00 16 1011.6
20260904063016 75 135 5.0 15.0 0.00 0.00 0.00 16 1011.3
20260904060016 76 135 7.0 17.0 0.00 0.00 0.00 16 1011.1
20260904053017 76 135 6.0 17.0 0.00 0.00 0.00 16 1011.1
20260904050057 77 113 5.0 17.0 0.00 0.00 0.00 16 1010.7
20260904043017 77 113 4.0 15.0 0.00 0.00 0.00 17 1010.7
20260904040017 76 113 4.0 12.0 0.00 0.00 0.00 17 1010.3
20260904033017 76 113 3.0 16.0 0.00 0.00 0.00 20 1009.8
20260904030017 77 113 2.0 10.0 0.00 0.00 0.00 20 1009.4
20260904023017 77 113 2.0 14.0 0.00 0.00 0.00 18 1009.1
20260904020017 78 0.0 7.0 0.00 0.00 0.00 20 1008.6
20260904013018 80 158 2.0 10.0 0.00 0.00 0.00 23 1009.1
20260904010057 81 180 4.0 12.0 0.00 0.00 0.00 21 1009.5
20260904003017 83 180 3.0 12.0 0.00 0.00 0.00 17 1009.7
20260904000017 83 180 4.0 13.0 0.00 0.00 0.00 15 1010.2
20260903233056 83 180 4.0 13.0 0.00 0.00 0.00 15 1010.1
20260903230017 84 180 4.0 11.0 0.00 0.00 0.00 16 1011.1
20260903223016 83 180 5.0 16.0 0.00 0.00 0.00 17 1011.6
20260903220017 83 180 6.0 17.0 0.00 0.00 0.00 16 1012.0
20260903213016 83 158 4.0 13.0 0.00 0.00 0.00 15 1012.3
20260903210016 82 180 5.0 13.0 0.00 0.00 0.00 17 1012.8